Zurück zum Katalog

HO-113

XW-3

AktivAmateurfunkSSO
NORAD 50466·PAYLOAD·🇨🇳 China

Gestartet Dec 26, 2021 von Taiyuan Satellite Launch Center

Loading…

Nächste Überflüge (nächste 24 Stunden)

TLE

AktuellSource: AMSAT

Epoche: Sep 14, 2026, 14:28 UTC

1 50466U 21131B   26257.60313410  .00000385  00000-0  13242-3 0  9990
2 50466  98.4979 349.5066 0004060 173.2704 186.8540 14.41424867247990

Verfolge HO-113 in Echtzeit mit AllMySat

Download on the App Store